www.pogodaiklimat.ru

Погода и климат >> Архив погоды >> Ирак >> Erbeel


ПОГОДА в Erbeel

  • Прогноз погоды в Erbeel
  • Монитор погоды в Erbeel
  • Климат города

АРХИВ ПОГОДЫ в Erbeel

Время (UTC), дата Ветер
(напр.,м/с)
 
Видим.   Явления Облачность Т
(С)
Тd
(С)
f
(%)
Тe
(С)
Тes
(С)
Комфортность P
(гПа)
Po
(гПа)
Тmin
(С)
Tmax
(С)
R
(мм)
R24
(мм)
S
(см)
03 20.04 штиль 0 10 км 1/1 660 м
[Cu hum]
+13.0 +8.5 74 +13 +13 1021.1 1021.0
06 20.04 Ю 1 10 км 1/1 600 м
[Sc diur, vesp]
+20.2 +12.0 59 +23 +34 комфорт 1018.7 1019.0 +12.4
09 20.04 З 1 9000 м мгла 3/1 600 м
[Cu med, cong Ci sp]
+22.0 +12.2 54 +24 +43 комфорт 1018.5 1019.0
12 20.04 В 2 10 км 3/1 660 м
[Cu med, cong Ac lent]
+23.7 +10.4 43 +25 +33 комфорт 1016.8 1017.0
15 20.04 С 2 10 км 1/1 660 м
[Cu med, cong]
+23.4 +8.5 39 +25 +25 комфорт 1016.3 1016.0
18 20.04 В 1 10 км ясно +19.8 +12.2 62 +22 +22 комфорт 1017.6 1018.0 +25.0
03 21.04 штиль 0 10 км ясно +13.6 +10.2 80 +13 +14 1019.0 1019.0
06 21.04 штиль 0 10 км 1/0
[Ci fib]
+22.0 +12.4 54 +24 +38 комфорт 1017.7 1018.0 +13.3
09 21.04 штиль 0 10 км ясно +24.4 +9.5 39 +25 +51 комфорт 1017.9 1018.0
12 21.04 штиль 0 10 км 5/1 750 м
[Cu hum Ac trans]
+25.0 +8.3 35 +25 +35 комфорт 1017.3 1017.0
15 21.04 З 1 10 км 3/0
[Ci sp]
+24.5 +9.1 38 +25 +26 комфорт 1017.2 1017.0
03 22.04 штиль 0 10 км ясно +14.5 +10.7 78 +14 +15 1018.1 1018.0
06 22.04 штиль 0 9000 м мгла ясно +22.0 +11.7 52 +24 +38 комфорт 1017.3 1017.0 +14.2
12 22.04 СЗ 3 10 км 9/0
[Cs]
+28.8 +11.0 33 +29 +37 жарко 1014.4 1014.0
15 22.04 СЗ 2 10 км 9/0
[Cs]
+27.6 +11.1 36 +28 +29 жарко 1013.5 1014.0
03 23.04 штиль 0 10 км 9/1
[Cu hum Ac und Cs]
+19.1 +11.5 61 +20 +20 1011.5 1012.0
06 23.04 В 1 8000 м мгла 9/4 750 м
[Sc diur, vesp Ac As]
+26.4 +10.0 36 +27 +30 жарко 1010.5 1011.0 +17.2
09 23.04 Ю 2 8000 м мгла 10/10 660 м
[Cu Sc]
+26.8 +12.7 42 +28 +28 жарко 1011.2 1011.0
12 23.04 СВ 1 9000 м мгла 9/9 660 м
[Cu Sc]
+25.5 +18.8 66 +30 +32 душно 1010.2 1010.0
15 23.04 В 2 9000 м ливневой дождь 10/6 600 м
[St As op]
+24.8 +13.7 50 +27 +27 жарко 1007.3 1007.0
18 23.04 СВ 2 9000 м дымка {дождь} 10/10 750 м
[Cu Sc]
+18.2 +14.6 80 +19 +19 1012.1 1012.0 +28.0 0.5
03 24.04 В 1 8000 м мгла 9/0
[Cs]
+19.6 +12.9 65 +22 +23 комфорт 1009.2 1009.0
06 24.04 ЮЗ 1 8000 м мгла 9/0
[Ac As]
+18.0 +12.3 69 +19 +24 1012.4 1012.0 +16.3
09 24.04 З 2 8000 м мгла 9/0
[Cs]
+23.5 +12.4 50 +25 +41 комфорт 1011.9 1012.0
12 24.04 З 1 10 км 3/0
[Ci sp]
+24.9 +7.4 33 +25 +37 комфорт 1011.1 1011.0
15 24.04 штиль 0 10 км ясно +24.0 +4.7 29 +24 +24 комфорт 1011.6 1012.0
18 24.04 З 1 10 км ясно +20.0 +7.4 44 +22 +22 комфорт 1013.6 1014.0 +25.6
03 25.04 штиль 0 10 км ясно +12.0 +6.8 70 +12 +12 1015.1 1015.0
06 25.04 штиль 0 10 км ясно +19.2 +9.2 52 +20 +34 опасность
простуды
1012.7 1013.0 +11.4
15 25.04 Ю 1 10 км 1/1 750 м
[Cu med, cong]
+25.1 +6.0 29 +25 +25 комфорт 1012.6 1013.0
18 25.04 С 2 10 км ясно +19.0 +7.7 48 +20 +20 1014.2 1014.0 +26.2
03 26.04 штиль 0 10 км ясно +12.1 +7.8 75 +12 +12 1015.9 1016.0
06 26.04 штиль 0 10 км ясно +21.0 +9.5 48 +22 +37 комфорт 1016.6 1017.0 +11.8
09 26.04 В 3 10 км ясно +25.7 +5.6 28 +25 +41 комфорт 1016.3 1016.0
15 26.04 СВ 1 10 км 5/0
[Ci sp]
+25.5 +6.4 29 +25 +26 комфорт 1014.3 1014.0

 

Местоположение метеостанции Erbeel (Ирак): широта 36.15 долгота 44.00 высота над уровнем моря 420 м.

В архиве по умолчанию представлена погода в Erbeel за последнюю неделю. Архивные данные за месяц целиком и за предыдущие месяцы, начиная с января 2011 года, Вы можете получить, выбрав интересующий диапазон дат из раскрывающегося списка и нажав кнопку "Ввод!".

Внимание! Время в таблицах - всемирное. Для получения местного времени необходимо прибавить поправку, которая в Erbeel равна 3 ч.

Смотрите также архив погоды в соседних городах и на ближайших метеорологических станциях:

Погода в Salahadin (Ирак) (31 км)
Погода в Makhmoor (Ирак) (57 км)
Погода в Aqraa (Ирак) (68 км)
Погода в Mosul (Ирак) (79 км)
Погода в Kirkuk (Ирак) (84 км)
Погода в Chamchamal (Ирак) (103 км)
Погода в Dohuk (Ирак) (120 км)
Погода в Baiji (Ирак) (144 км)
Погода в Sulaimaniya (Ирак) (147 км)
Погода в Tuz (Ирак) (153 км)

Пояснения к столбцам:

Ветер - указаны скорость ветра в м/с - средняя за 10 мин, порывы в срок и между сроками (в фигурных скобках) и направление, откуда дует ветер: С - северный, СВ - северо-восточный, В - восточный, ЮВ - юго-восточный, Ю - южный, ЮЗ - юго-западный, З - западный, СЗ - северо-западный.
Видимость - горизонтальная дальность видимости в метрах или километрах. При видимости от 1 до 10 км при отсутствии осадков обычно наблюдается дымка, при ухудшении видимости до 1 км и менее - туман. В сухую погоду видимость может ухудшаться дымом, пылью или мглою.
Явления - указаны атмосферные явления, наблюдавшиеся в срок или в последний час перед сроком; фигурными скобками обозначены явления, наблюдавшиеся между сроками (за 1-3 часа до срока); квадратными скобками обозначены град или гололедные отложения с указанием их диаметра в мм.
Облачность - указаны через наклонную черту общая и нижняя облачность в баллах и высота нижней границы облаков в метрах; квадратными скобками обозначены формы облаков: Ci - перистые, Cs - перисто-слоистые, Cc - перисто-кучевые, Ac - высококучевые, As - высокослоистые, Sc - слоисто-кучевые, Ns - слоисто-дождевые, Cu - кучевые, Cb - кучево-дождевые. Подробнее классификацию облаков см. в Атласе облаков (PDF).
T - Температура воздуха - температура, измеренная на высоте 2 м над землей.
Td - Температура точки росы - температура, при понижении до которой содержащийся в воздухе водяной пар достигнет насыщения.
f - Относительная влажность воздуха - влажноcть воздуха, измеренная на высоте 2 м над землей.
Te - Эффективная температура - температура, которую ощущает одетый по сезону человек в тени. Характеристика душности погоды. При расчете учитывается влияние влажности воздуха и скорости ветра на теплоощущения человека.
Tes - Эффективная температура на солнце - температура, которую ощущает человек, с поправкой на солнечный нагрев. Характеристика знойности погоды. Зависит от высоты солнца над горизонтом, облачности и скорости ветра. Ночью, в пасмурную погоду, а также при ветре 12 м/с и более поправка равна нулю.
P - Атмосферное давление - приведенное к уровню моря атмосферное давление.
Po - Атмосферное давление - измеренное на уровне метеостанции атмосферное давление.
Tmin - Минимальная температура - минимум температуры воздуха на высоте 2 м над землей.
Tmax - Максимальная температура - максимум температуры воздуха на высоте 2 м над землей.
R - Количество осадков - Количество выпавших осадков за период времени, мм. При наведении курсора мыши на число - период времени, за который выпало указанное количество осадков.
R24 - Количество осадков - Количество выпавших осадков за 24 часа, мм.
S - Снежный покров - Высота снежного покрова, см. При наведении курсора мыши на число - состояние снежного покрова и степень покрытия местности в баллах.